Location: Forl�
(44.2240°N, 12.0530°E)
Time: 12:20:28
(UTC+02:00)

ISS - Visible Passes

Search period start: 11 May 2021 00:00
Search period end: 21 May 2021 00:00
Orbit: 418 x 421 km, 51.6° (Epoch: 11 May)

Date Brightness Start Highest point End Pass type
(mag) Time Alt. Az. Time Alt. Az. Time Alt. Az.
11 May -1.5 02:04:20 25° N 02:04:20 25° N 02:06:46 10° NE visible
11 May -1.4 03:38:32 10° NW 03:41:23 24° N 03:44:13 10° ENE visible
11 May -3.2 05:15:17 10° NW 05:18:39 64° NNE 05:22:00 10° ESE visible
12 May -1.0 01:18:16 17° NE 01:18:16 17° NE 01:19:21 10° NE visible
12 May -1.3 02:51:12 11° NW 02:53:45 23° N 02:56:31 10° ENE visible
12 May -2.5 04:27:53 10° NW 04:31:09 44° NNE 04:34:25 10° E visible
13 May -1.3 02:05:02 19° NNW 02:06:08 22° N 02:08:53 10° NE visible
13 May -2.0 03:40:30 10° NW 03:43:37 34° NNE 03:46:44 10° E visible
14 May -1.3 01:18:38 23° N 01:18:38 23° N 01:21:19 10° NE visible
14 May -1.6 02:53:04 10° NW 02:56:03 28° NNE 02:59:00 10° ENE visible
14 May -3.8 04:29:46 10° WNW 04:33:09 84° SSW 04:36:32 10° SE visible
14 May -2.0 21:15:32 10° SSE 21:17:22 14° SE 21:19:12 10° E visible
14 May -3.8 22:50:23 10° WSW 22:53:44 85° NW 22:55:37 24° ENE visible
15 May -1.5 00:27:59 10° WNW 00:30:54 26° NNW 00:33:50 10° NE visible
15 May -1.4 02:05:36 10° NW 02:08:27 24° N 02:11:16 10° ENE visible
15 May -3.3 03:42:20 10° NW 03:45:42 64° NNE 03:49:03 10° ESE visible
15 May -3.8 22:03:01 10° SW 22:06:20 60° SE 22:09:40 10° ENE visible
15 May -1.9 23:40:16 10° W 23:43:20 31° NNW 23:46:24 10° NE visible
16 May -1.2 01:18:04 10° NW 01:20:49 23° N 01:23:35 10° ENE visible
16 May -2.6 02:54:56 10° NW 02:58:12 44° NNE 03:01:28 10° E visible
16 May -3.0 04:31:54 10° WNW 04:34:56 31° SW 04:37:58 10° SSE visible
16 May -3.2 21:15:51 10° SSW 21:18:58 36° SE 21:22:06 10° ENE visible
16 May -2.4 22:52:33 10° W 22:55:46 40° NNW 22:58:59 10° NE visible
17 May -1.2 00:30:27 10° NW 00:33:11 22° N 00:35:55 10° NE visible
17 May -2.0 02:07:32 10° NW 02:10:40 34° NNE 02:13:47 10° E visible
17 May -3.7 03:44:18 10° WNW 03:47:35 51° SW 03:50:52 10° SE visible
17 May -3.0 22:04:56 10° WSW 22:08:15 56° NNW 22:11:35 10° NE visible
17 May -1.3 23:42:46 10° WNW 23:45:33 23° N 23:48:21 10° NE visible
18 May -1.6 01:20:07 10° NW 01:22:56 27° N 01:22:56 27° N visible
18 May -3.7 21:17:25 10° WSW 21:20:47 85° NNW 21:24:09 10° ENE visible
18 May -1.5 22:55:02 10° WNW 22:57:56 26° NNW 23:00:51 10° NE visible
19 May -1.4 00:32:38 10° NW 00:35:28 24° N 00:36:31 21° NE visible
19 May -0.8 02:09:22 10° NW 02:09:26 10° NW 02:09:26 10° NW visible
19 May -1.8 22:07:17 10° W 22:10:21 31° NNW 22:13:24 10° NE visible
19 May -1.3 23:45:05 10° NW 23:47:51 23° N 23:50:21 11° NE visible
20 May -1.4 01:21:58 10° NW 01:23:16 21° NW 01:23:16 21° NW visible
20 May -2.3 21:19:35 10° W 21:22:47 40° NNW 21:26:00 10° NE visible
20 May -1.3 22:57:28 10° NW 23:00:12 22° N 23:02:57 10° NE visible
